HB9KNR Weather Reports


Display with metric or nautical units.
time (UTC)temp
F
wind
direction
speed
MPH
gust
MPH
rain 1hr
in
rain 24hr
in
rain mn
in
humidity
%
barometer
mb
20260904161516 86 0.0 2.0 0.00 0.00 0.00 43 1015.9
20260904160516 86 0.0 3.0 0.00 0.00 0.00 43 1016.0
20260904155516 86 0.0 0.0 0.00 0.00 0.00 43 1016.2
20260904154516 86 0.0 3.0 0.00 0.00 0.00 41 1016.3
20260904153516 86 0.0 0.0 0.00 0.00 0.00 42 1016.2
20260904152516 86 0.0 0.0 0.00 0.00 0.00 44 1016.4
20260904151516 86 0.0 4.0 0.00 0.00 0.00 42 1016.4
20260904150536 86 0.0 1.0 0.00 0.00 0.00 41 1016.4
20260904145516 86 0.0 3.0 0.00 0.00 0.00 40 1016.8
20260904144516 86 0.0 1.0 0.00 0.00 0.00 43 1016.8
20260904143516 86 0.0 2.0 0.00 0.00 0.00 41 1016.9
20260904142536 87 0.0 3.0 0.00 0.00 0.00 39 1017.1
20260904141516 87 0.0 6.0 0.00 0.00 0.00 40 1017.2
20260904140516 87 0.0 0.0 0.00 0.00 0.00 43 1017.1
20260904135516 86 315 1.0 7.0 0.00 0.00 0.00 42 1017.3
20260904134516 86 0.0 2.0 0.00 0.00 0.00 41 1017.4
20260904133516 86 0.0 1.0 0.00 0.00 0.00 42 1017.5
20260904132516 86 0.0 4.0 0.00 0.00 0.00 41 1017.7
20260904131536 86 0.0 3.0 0.00 0.00 0.00 40 1017.7
20260904130516 86 293 1.0 4.0 0.00 0.00 0.00 41 1017.8
20260904125516 85 0.0 3.0 0.00 0.00 0.00 43 1017.9
20260904124516 85 338 1.0 5.0 0.00 0.00 0.00 40 1017.9
20260904123536 85 0.0 4.0 0.00 0.00 0.00 41 1018.1
20260904122516 85 0.0 3.0 0.00 0.00 0.00 45 1018.3
20260904121516 84 0.0 3.0 0.00 0.00 0.00 43 1018.2
20260904120516 84 0.0 1.0 0.00 0.00 0.00 45 1018.4
20260904115516 84 0.0 2.0 0.00 0.00 0.00 45 1018.6
20260904114516 84 0.0 6.0 0.00 0.00 0.00 45 1018.7
20260904113516 84 0.0 2.0 0.00 0.00 0.00 47 1018.9
20260904112516 83 0.0 3.0 0.00 0.00 0.00 45 1019.2
20260904111516 83 0.0 3.0 0.00 0.00 0.00 48 1019.3
20260904110516 82 0.0 2.0 0.00 0.00 0.00 48 1019.5
20260904105536 83 0.0 3.0 0.00 0.00 0.00 44 1019.6
20260904104516 82 0.0 2.0 0.00 0.00 0.00 45 1019.8
20260904103516 81 0.0 2.0 0.00 0.00 0.00 48 1019.9
20260904102516 79 0.0 3.0 0.00 0.00 0.00 55 1020.0
20260904101516 79 0.0 2.0 0.00 0.00 0.00 55 1020.1
20260904100516 78 0.0 1.0 0.00 0.00 0.00 54 1020.3
20260904095516 78 0.0 0.0 0.00 0.00 0.00 55 1020.5
20260904094516 77 0.0 0.0 0.00 0.00 0.00 61 1020.6
20260904093516 77 0.0 0.0 0.00 0.00 0.00 62 1020.8
20260904092516 76 0.0 3.0 0.00 0.00 0.00 62 1020.8
20260904091516 77 0.0 0.0 0.00 0.00 0.00 57 1020.9
20260904090536 76 0.0 0.0 0.00 0.00 0.00 63 1021.0
20260904085516 75 0.0 0.0 0.00 0.00 0.00 64 1021.1
20260904084516 74 0.0 0.0 0.00 0.00 0.00 64 1021.1
20260904083516 73 0.0 0.0 0.00 0.00 0.00 64 1021.2
20260904082536 73 0.0 0.0 0.00 0.00 0.00 64 1021.3
20260904081536 74 0.0 0.0 0.00 0.00 0.00 64 1021.3
20260904080516 74 0.0 0.0 0.00 0.00 0.00 65 1021.2
20260904075516 73 0.0 0.0 0.00 0.00 0.00 67 1021.1
20260904074515 72 0.0 0.0 0.00 0.00 0.00 71 1021.4
20260904073516 71 0.0 0.0 0.00 0.00 0.00 73 1021.3
20260904072516 69 0.0 0.0 0.00 0.00 0.00 77 1021.3
20260904071516 68 0.0 0.0 0.00 0.00 0.00 81 1021.5
20260904070516 66 0.0 0.0 0.00 0.00 0.00 85 1021.5
20260904065516 65 0.0 0.0 0.00 0.00 0.00 87 1021.5
20260904064516 63 0.0 0.0 0.00 0.00 0.00 88 1021.6
20260904063516 62 0.0 0.0 0.00 0.00 0.00 89 1021.6
20260904062515 60 0.0 0.0 0.00 0.00 0.00 89 1021.5
20260904061515 59 0.0 0.0 0.00 0.00 0.00 88 1021.4
20260904060516 59 0.0 0.0 0.00 0.00 0.00 87 1021.5
20260904055516 58 0.0 0.0 0.00 0.00 0.00 86 1021.4
20260904054515 58 0.0 0.0 0.00 0.00 0.00 85 1021.3
20260904053515 57 0.0 0.0 0.00 0.00 0.00 84 1021.2
20260904053229 57 0.0 0.0 0.00 0.00 0.00 84 1021.1
20260904051515 58 0.0 0.0 0.00 0.00 0.00 83 1021.2
20260904050516 58 0.0 0.0 0.00 0.00 0.00 82 1021.3
20260904045516 58 0.0 0.0 0.00 0.00 0.00 82 1021.3
20260904044516 58 0.0 0.0 0.00 0.00 0.00 81 1021.4
20260904043515 58 0.0 0.0 0.00 0.00 0.00 81 1021.5
20260904042515 59 0.0 0.0 0.00 0.00 0.00 80 1021.8
20260904041515 59 0.0 0.0 0.00 0.00 0.00 80 1022.0
20260904040536 59 0.0 0.0 0.00 0.00 0.00 80 1022.0
20260904035515 60 0.0 0.0 0.00 0.00 0.00 80 1022.1
20260904034516 60 0.0 0.0 0.00 0.00 0.00 79 1022.2
20260904033556 60 0.0 0.0 0.00 0.00 0.00 79 1022.1
20260904032515 60 0.0 0.0 0.00 0.00 0.00 78 1022.1
20260904031515 61 0.0 0.0 0.00 0.00 0.00 77 1022.2
20260904030515 61 0.0 0.0 0.00 0.00 0.00 77 1022.2
20260904025515 61 0.0 0.0 0.00 0.00 0.00 76 1022.1
20260904024535 61 0.0 0.0 0.00 0.00 0.00 76 1022.2
20260904023516 62 0.0 0.0 0.00 0.00 0.00 76 1022.5
20260904022516 62 0.0 0.0 0.00 0.00 0.00 76 1022.6
20260904021515 62 0.0 0.0 0.00 0.00 0.00 75 1022.6
20260904020515 63 0.0 0.0 0.00 0.00 0.00 76 1022.7
20260904015536 63 0.0 0.0 0.00 0.00 0.00 76 1022.6
20260904014515 63 0.0 0.0 0.00 0.00 0.00 76 1022.7
20260904013515 63 0.0 0.0 0.00 0.00 0.00 77 1022.8
20260904012516 63 0.0 0.0 0.00 0.00 0.00 76 1023.0
20260904011515 63 0.0 0.0 0.00 0.00 0.00 76 1023.0
20260904010515 63 0.0 0.0 0.00 0.00 0.00 75 1023.0
20260904005515 63 0.0 0.0 0.00 0.00 0.00 75 1023.0
20260904004516 63 0.0 0.0 0.00 0.00 0.00 75 1023.1
20260904003515 63 0.0 0.0 0.00 0.00 0.00 75 1023.0
20260904002515 63 0.0 0.0 0.00 0.00 0.00 75 1023.0
20260904001517 63 0.0 0.0 0.00 0.00 0.00 74 1023.0
20260904000517 63 0.0 0.0 0.00 0.00 0.00 73 1023.0
20260903235518 63 0.0 0.0 0.00 0.00 0.00 72 1023.0
20260903234517 63 0.0 0.0 0.00 0.00 0.00 72 1023.0
20260903233537 63 0.0 0.0 0.00 0.00 0.00 71 1023.0
20260903232517 63 0.0 0.0 0.00 0.00 0.00 70 1023.2
20260903231518 64 0.0 0.0 0.00 0.00 0.00 70 1023.3
20260903230517 64 0.0 0.0 0.00 0.00 0.00 69 1023.2
20260903225517 64 0.0 0.0 0.00 0.00 0.00 69 1023.3
20260903224517 65 0.0 0.0 0.00 0.00 0.00 68 1023.6
20260903223517 65 0.0 0.0 0.00 0.00 0.00 67 1023.5
20260903222517 66 0.0 0.0 0.00 0.00 0.00 67 1023.5
20260903221517 66 0.0 0.0 0.00 0.00 0.00 67 1023.6
20260903215516 66 0.0 0.0 0.00 0.00 0.00 64 1023.6
20260903214516 67 0.0 0.0 0.00 0.00 0.00 63 1023.5
20260903213536 67 0.0 0.0 0.00 0.00 0.00 62 1023.1
20260903212516 67 0.0 0.0 0.00 0.00 0.00 62 1023.1
20260903211516 67 0.0 0.0 0.00 0.00 0.00 61 1023.2
20260903210516 68 0.0 0.0 0.00 0.00 0.00 61 1023.1
20260903205516 68 0.0 0.0 0.00 0.00 0.00 61 1023.1
20260903204516 68 0.0 0.0 0.00 0.00 0.00 61 1023.0
20260903203556 68 0.0 0.0 0.00 0.00 0.00 60 1023.0
20260903202516 69 0.0 0.0 0.00 0.00 0.00 60 1023.0
20260903201516 69 0.0 1.0 0.00 0.00 0.00 60 1023.1
20260903200516 69 0.0 0.0 0.00 0.00 0.00 59 1022.8
20260903195516 69 0.0 0.0 0.00 0.00 0.00 59 1022.7
20260903194516 69 0.0 2.0 0.00 0.00 0.00 59 1022.7
20260903193536 70 0.0 0.0 0.00 0.00 0.00 59 1022.4
20260903192516 70 0.0 0.0 0.00 0.00 0.00 58 1022.2
20260903191516 71 0.0 0.0 0.00 0.00 0.00 57 1022.2
20260903190516 71 0.0 0.0 0.00 0.00 0.00 56 1022.0
20260903185516 71 0.0 0.0 0.00 0.00 0.00 56 1021.9
20260903184516 72 0.0 0.0 0.00 0.00 0.00 55 1022.1
20260903183536 72 0.0 0.0 0.00 0.00 0.00 55 1021.8
20260903182516 73 0.0 0.0 0.00 0.00 0.00 55 1021.7
20260903181516 73 0.0 0.0 0.00 0.00 0.00 54 1021.7
20260903180516 74 0.0 0.0 0.00 0.00 0.00 54 1021.5
20260903175516 75 0.0 0.0 0.00 0.00 0.00 52 1021.3
20260903174516 75 0.0 0.0 0.00 0.00 0.00 51 1021.6
20260903173516 75 0.0 0.0 0.00 0.00 0.00 51 1021.4
20260903172516 76 0.0 0.0 0.00 0.00 0.00 50 1021.4
20260903171536 76 0.0 0.0 0.00 0.00 0.00 49 1021.5
20260903170516 76 0.0 0.0 0.00 0.00 0.00 49 1021.6
20260903165536 77 0.0 0.0 0.00 0.00 0.00 50 1021.5
20260903164515 77 0.0 2.0 0.00 0.00 0.00 50 1021.5
20260903163515 77 0.0 0.0 0.00 0.00 0.00 49 1021.5
20260903162515 77 0.0 2.0 0.00 0.00 0.00 49 1021.5